Location: Nairn
(57.5833°N, 3.8667°W)
Time: 15:53:22
(UTC+00:00)

S-56A Canister/Altair - Pass Details

Date: 05 December 2020
Orbit: 633 x 2499 km, 38.9° (Epoch: 19 January)

Event Time Altitude Azimuth Distance (km) Brightness Sun altitude
Rises 22:09:09 0° 262° (W) 5,322 12.1 -49.0°
Reaches altitude 10° 22:14:42 10° 244° (WSW) 3,916 11.2 -49.5°
Enters shadow 22:15:14 11° 242° (WSW) 3,796 11.1 -49.6°
Maximum altitude 22:19:53 16° 212° (SSW) 3,057 - -50.0°
Drops below altitude 10° 22:24:11 10° 178° (S) 3,116 - -50.3°
Sets 22:27:50 0° 157° (SSE) 3,757 - -50.6°
